This demonstration page uses our WeatherBlox Daily Observations layout. Learn more.

39.92423, -83.80882

Hourly Observations for December 10, 2017

Temp ( °F °C ) Dew Point ( °F °C ) Humidity (%) Winds ( mph kmh ) Pressure ( in mb ) Visibility ( mi km ) Precip ( " mm )
12:56 am 00:56 Cloudy 28 -2.2 23 -5 81 81 W 12 19 30.04 1017 10 16.0934 0 0
1:15 am 01:15 Cloudy with Light Snow 28 -2 25 -4 86 86 W 16 26 30.06 1018 9 14.48406 0 0.0254
1:56 am 01:56 Cloudy 27 -2.8 24 -4.4 89 89 W 13 20 30.06 1018 9 14.48406 0 0.0254
2:56 am 02:56 Cloudy 26 -3.3 23 -5 88 88 W 10 17 30.08 1019 10 16.0934 0 0.0254
3:56 am 03:56 Cloudy 26 -3.3 22 -5.6 84 84 WSW 10 17 30.09 1019 10 16.0934 0 0
4:32 am 04:32 Cloudy 25 -4 21 -6 86 86 W 14 22 30.12 1020 10 16.0934 0 0
4:56 am 04:56 Cloudy 25 -3.9 20 -6.7 81 81 W 10 17 30.09 1019 10 16.0934 0 0
5:56 am 05:56 Cloudy 24 -4.4 19 -7.2 81 81 WSW 13 20 30.1 1019 10 16.0934 0 0
6:52 am 06:52 Partly Cloudy 21 -6 16 -9 80 80 WSW 12 19 30.15 1021 10 16.0934 0 0
6:56 am 06:56 Mostly Clear 20 -6.7 15 -9.4 81 81 WSW 10 17 30.12 1020 10 16.0934 0 0
7:56 am 07:56 Mostly Cloudy 20 -6.7 16 -8.9 85 85 SW 10 17 30.12 1020 10 16.0934 0 0
8:56 am 08:56 Sunny 22 -5.6 16 -8.9 78 78 SW 12 19 30.11 1020 10 16.0934 0 0
9:56 am 09:56 Cloudy 23 -5 17 -8.3 78 78 SW 12 19 30.12 1020 10 16.0934 0 0
10:56 am 10:56 Cloudy 25 -3.9 17 -8.3 72 72 SW 14 22 30.11 1020 10 16.0934 0 0
11:56 am 11:56 Cloudy 27 -2.8 18 -7.8 69 69 SW 16 26 30.07 1018 10 16.0934 0 0
12:56 pm 12:56 Cloudy 29 -1.7 19 -7.2 66 66 SW 13 20 30.04 1017 10 16.0934 0 0
1:56 pm 13:56 Cloudy 30 -1.1 19 -7.2 64 64 SW 20 31 30 1016 10 16.0934 0 0
2:56 pm 14:56 Cloudy 30 -1.1 20 -6.7 66 66 SW 14 22 29.99 1016 10 16.0934 0 0
3:56 pm 15:56 Sunny 32 0 19 -7.2 59 59 SSW 13 20 29.97 1015 10 16.0934 0 0
4:56 pm 16:56 Sunny 30 -1.1 20 -6.7 66 66 SW 12 19 29.99 1016 10 16.0934 0 0
5:56 pm 17:56 Clear 27 -2.8 20 -6.7 75 75 SW 7 11 30.03 1017 10 16.0934 0 0
6:56 pm 18:56 Mostly Cloudy 29 -1.7 21 -6.1 72 72 SW 6 9 30.04 1017 10 16.0934 0 0
7:56 pm 19:56 Cloudy 30 -1.1 21 -6.1 69 69 SW 6 9 30.04 1017 10 16.0934 0 0
8:56 pm 20:56 Cloudy 31 -0.6 22 -5.6 69 69 SW 12 19 30.03 1017 10 16.0934 0 0
9:56 pm 21:56 Cloudy 31 -0.6 22 -5.6 69 69 SW 9 15 30.03 1017 10 16.0934 0 0
10:56 pm 22:56 Cloudy 32 0 22 -5.6 66 66 W 15 24 30.04 1017 10 16.0934 0 0
11:56 pm 23:56 Mostly Cloudy 29 -1.7 22 -5.6 75 75 W 10 17 30.04 1017 10 16.0934 0 0

Powered by AerisWeather